Time,TemperatureF,DewpointF,PressureIn,WindDirection,WindDirectionDegrees,WindSpeedMPH,WindSpeedGustMPH,Humidity,HourlyPrecipIn,Conditions,Clouds,dailyrainin,SoftwareType,DateUTC
2013-02-19 00:07:00,42.4,41.1,29.83,SW,225,3.2,-999.0,95,-99.99,,,0.00,Acu-Link.com,2013-02-19 08:07:00,
2013-02-19 00:22:00,42.3,40.7,29.83,NW,315,6.3,-999.0,94,-99.99,,,0.00,Acu-Link.com,2013-02-19 08:22:00,
2013-02-19 00:37:00,41.9,40.0,29.83,West,270,4.2,-999.0,93,-99.99,,,0.00,Acu-Link.com,2013-02-19 08:37:00,
2013-02-19 00:53:00,41.7,40.1,29.82,West,270,2.7,-999.0,94,-99.99,,,0.00,Acu-Link.com,2013-02-19 08:53:00,
2013-02-19 01:17:00,41.7,40.1,29.83,WSW,247,2.7,-999.0,94,-99.99,,,0.00,Acu-Link.com,2013-02-19 09:17:00,
2013-02-19 01:32:00,41.4,39.8,29.83,West,270,4.7,-999.0,94,-99.99,,,0.00,Acu-Link.com,2013-02-19 09:32:00,
2013-02-19 01:47:00,41.2,39.6,29.83,West,270,3.2,-999.0,94,-99.99,,,0.00,Acu-Link.com,2013-02-19 09:47:00,
2013-02-19 02:02:00,40.8,38.9,29.83,WNW,292,3.7,-999.0,93,-99.99,,,0.00,Acu-Link.com,2013-02-19 10:02:00,
2013-02-19 02:17:00,40.6,38.7,29.82,WNW,292,4.2,-999.0,93,-99.99,,,0.00,Acu-Link.com,2013-02-19 10:17:00,
2013-02-19 02:33:00,40.6,38.5,29.81,West,270,4.2,-999.0,92,-99.99,,,0.00,Acu-Link.com,2013-02-19 10:33:00,
2013-02-19 02:48:00,40.3,38.4,29.81,SW,225,4.2,-999.0,93,-99.99,,,0.00,Acu-Link.com,2013-02-19 10:48:00,
2013-02-19 03:03:00,40.3,38.4,29.80,West,270,3.2,-999.0,93,-99.99,,,0.00,Acu-Link.com,2013-02-19 11:03:00,
2013-02-19 03:18:00,39.7,38.1,29.80,WNW,292,2.7,-999.0,94,-99.99,,,0.00,Acu-Link.com,2013-02-19 11:18:00,
2013-02-19 03:33:00,39.4,38.1,29.79,ESE,112,7.3,-999.0,95,-99.99,,,0.00,Acu-Link.com,2013-02-19 11:33:00,
2013-02-19 03:49:00,39.0,38.2,29.80,SSE,157,2.7,-999.0,97,-99.99,,,0.00,Acu-Link.com,2013-02-19 11:49:00,
2013-02-19 04:04:00,39.2,38.4,29.79,SW,225,4.7,-999.0,97,-99.99,,,0.00,Acu-Link.com,2013-02-19 12:04:00,
2013-02-19 04:19:00,39.6,38.6,29.80,NNW,337,3.2,-999.0,96,-99.99,,,0.00,Acu-Link.com,2013-02-19 12:19:00,
2013-02-19 04:34:00,39.6,38.8,29.80,SSW,202,3.2,-999.0,97,-99.99,,,0.00,Acu-Link.com,2013-02-19 12:34:00,
2013-02-19 04:49:00,39.6,38.6,29.80,ENE,67,4.7,-999.0,96,-99.99,,,0.00,Acu-Link.com,2013-02-19 12:49:00,
2013-02-19 05:05:00,39.7,38.7,29.80,SW,225,2.7,-999.0,96,-99.99,,,0.00,Acu-Link.com,2013-02-19 13:05:00,
2013-02-19 05:20:00,39.7,38.7,29.80,NW,315,1.1,-999.0,96,-99.99,,,0.00,Acu-Link.com,2013-02-19 13:20:00,
2013-02-19 05:35:00,39.7,38.7,29.81,SSE,157,9.4,-999.0,96,-99.99,,,0.00,Acu-Link.com,2013-02-19 13:35:00,
2013-02-19 05:50:00,39.6,38.6,29.80,North,0,2.7,-999.0,96,-99.99,,,0.00,Acu-Link.com,2013-02-19 13:50:00,
2013-02-19 06:05:00,38.1,37.6,29.79,WSW,247,3.2,-999.0,98,-99.99,,,0.00,Acu-Link.com,2013-02-19 14:05:00,
2013-02-19 06:21:00,39.4,38.9,29.78,ESE,112,2.2,-999.0,98,-99.99,,,0.00,Acu-Link.com,2013-02-19 14:21:00,
2013-02-19 06:36:00,39.6,39.1,29.78,SE,135,2.7,-999.0,98,-99.99,,,0.00,Acu-Link.com,2013-02-19 14:36:00,
2013-02-19 06:51:00,39.7,39.2,29.78,ESE,112,2.2,-999.0,98,-99.99,,,0.00,Acu-Link.com,2013-02-19 14:51:00,
2013-02-19 07:06:00,39.7,39.2,29.78,ESE,112,8.9,-999.0,98,-99.99,,,0.00,Acu-Link.com,2013-02-19 15:06:00,
2013-02-19 07:22:00,39.4,38.9,29.77,SE,135,3.2,-999.0,98,-99.99,,,0.00,Acu-Link.com,2013-02-19 15:22:00,
2013-02-19 07:37:00,39.2,38.7,29.77,South,180,3.2,-999.0,98,-99.99,,,0.01,Acu-Link.com,2013-02-19 15:37:00,
2013-02-19 07:52:00,38.3,37.8,29.76,SSE,157,3.7,-999.0,98,-99.99,,,0.02,Acu-Link.com,2013-02-19 15:52:00,
2013-02-19 08:07:00,38.3,37.8,29.76,ESE,112,5.3,-999.0,98,-99.99,,,0.02,Acu-Link.com,2013-02-19 16:07:00,
2013-02-19 08:22:00,38.7,38.2,29.76,ESE,112,3.7,-999.0,98,-99.99,,,0.02,Acu-Link.com,2013-02-19 16:22:00,
2013-02-19 08:38:00,39.0,38.5,29.75,SE,135,4.2,-999.0,98,-99.99,,,0.02,Acu-Link.com,2013-02-19 16:38:00,
2013-02-19 08:53:00,39.4,38.9,29.74,SE,135,4.7,-999.0,98,-99.99,,,0.02,Acu-Link.com,2013-02-19 16:53:00,
2013-02-19 09:08:00,39.7,39.2,29.74,SE,135,3.2,-999.0,98,-99.99,,,0.03,Acu-Link.com,2013-02-19 17:08:00,
2013-02-19 09:23:00,40.1,39.6,29.73,ESE,112,2.7,-999.0,98,-99.99,,,0.04,Acu-Link.com,2013-02-19 17:23:00,
2013-02-19 09:38:00,40.8,40.3,29.71,East,90,2.7,-999.0,98,-99.99,,,0.05,Acu-Link.com,2013-02-19 17:38:00,
2013-02-19 09:54:00,40.5,40.0,29.71,WSW,247,3.2,-999.0,98,-99.99,,,0.06,Acu-Link.com,2013-02-19 17:54:00,
2013-02-19 10:09:00,41.0,40.5,29.70,South,180,4.2,-999.0,98,-99.99,,,0.06,Acu-Link.com,2013-02-19 18:09:00,
2013-02-19 10:24:00,41.7,40.9,29.70,South,180,5.8,-999.0,97,-99.99,,,0.06,Acu-Link.com,2013-02-19 18:24:00,
2013-02-19 10:39:00,42.1,41.0,29.69,West,270,5.3,-999.0,96,-99.99,,,0.06,Acu-Link.com,2013-02-19 18:39:00,
2013-02-19 10:54:00,42.6,41.5,29.68,South,180,3.7,-999.0,96,-99.99,,,0.06,Acu-Link.com,2013-02-19 18:54:00,
2013-02-19 11:10:00,42.3,41.8,29.68,West,270,2.7,-999.0,98,-99.99,,,0.06,Acu-Link.com,2013-02-19 19:10:00,
2013-02-19 11:25:00,41.7,41.2,29.67,NE,45,2.7,-999.0,98,-99.99,,,0.06,Acu-Link.com,2013-02-19 19:25:00,
2013-02-19 11:40:00,39.9,39.4,29.67,SSW,202,4.7,-999.0,98,-99.99,,,0.10,Acu-Link.com,2013-02-19 19:40:00,
2013-02-19 11:55:00,40.5,40.0,29.66,NW,315,4.7,-999.0,98,-99.99,,,0.20,Acu-Link.com,2013-02-19 19:55:00,
2013-02-19 12:11:00,40.5,40.0,29.67,West,270,6.3,-999.0,98,-99.99,,,0.24,Acu-Link.com,2013-02-19 20:11:00,
2013-02-19 12:26:00,38.5,38.0,29.67,West,270,8.3,-999.0,98,-99.99,,,0.28,Acu-Link.com,2013-02-19 20:26:00,
2013-02-19 12:41:00,38.3,37.8,29.67,WNW,292,8.3,-999.0,98,-99.99,,,0.32,Acu-Link.com,2013-02-19 20:41:00,
2013-02-19 12:56:00,37.2,36.7,29.67,West,270,4.7,-999.0,98,-99.99,,,0.44,Acu-Link.com,2013-02-19 20:56:00,
2013-02-19 13:11:00,34.7,34.2,29.67,West,270,4.2,-999.0,98,-99.99,,,0.53,Acu-Link.com,2013-02-19 21:11:00,
2013-02-19 13:27:00,34.9,34.4,29.66,SE,135,1.1,-999.0,98,-99.99,,,0.59,Acu-Link.com,2013-02-19 21:27:00,
2013-02-19 13:42:00,36.1,34.8,29.65,SSE,157,3.7,-999.0,95,-99.99,,,0.64,Acu-Link.com,2013-02-19 21:42:00,
2013-02-19 13:57:00,36.5,35.2,29.64,SE,135,5.3,-999.0,95,-99.99,,,0.66,Acu-Link.com,2013-02-19 21:57:00,
2013-02-19 14:12:00,36.7,36.2,29.64,ESE,112,3.2,-999.0,98,-99.99,,,0.66,Acu-Link.com,2013-02-19 22:12:00,
2013-02-19 14:27:00,37.0,36.5,29.64,ESE,112,3.2,-999.0,98,-99.99,,,0.66,Acu-Link.com,2013-02-19 22:27:00,
2013-02-19 14:43:00,37.8,37.3,29.65,SSE,157,2.2,-999.0,98,-99.99,,,0.66,Acu-Link.com,2013-02-19 22:43:00,
2013-02-19 14:58:00,37.4,36.9,29.64,ESE,112,3.7,-999.0,98,-99.99,,,0.66,Acu-Link.com,2013-02-19 22:58:00,
2013-02-19 15:14:00,37.2,36.7,29.65,WNW,292,2.2,-999.0,98,-99.99,,,0.66,Acu-Link.com,2013-02-19 23:14:00,
2013-02-19 15:29:00,37.2,36.7,29.64,ESE,112,2.7,-999.0,98,-99.99,,,0.68,Acu-Link.com,2013-02-19 23:29:00,
2013-02-19 15:44:00,37.8,37.3,29.64,SSE,157,5.3,-999.0,98,-99.99,,,0.68,Acu-Link.com,2013-02-19 23:44:00,
2013-02-19 15:59:00,36.7,36.2,29.63,SE,135,4.7,-999.0,98,-99.99,,,0.68,Acu-Link.com,2013-02-19 23:59:00,
2013-02-19 16:14:00,36.7,36.2,29.62,ESE,112,5.8,-999.0,98,-99.99,,,0.68,Acu-Link.com,2013-02-20 00:14:00,
2013-02-19 16:30:00,36.3,35.8,29.62,ESE,112,2.2,-999.0,98,-99.99,,,0.68,Acu-Link.com,2013-02-20 00:30:00,
2013-02-19 16:45:00,36.5,36.0,29.63,WNW,292,1.1,-999.0,98,-99.99,,,0.68,Acu-Link.com,2013-02-20 00:45:00,
2013-02-19 17:00:00,36.5,36.0,29.63,ESE,112,3.2,-999.0,98,-99.99,,,0.68,Acu-Link.com,2013-02-20 01:00:00,
2013-02-19 17:15:00,36.1,35.6,29.62,ESE,112,2.7,-999.0,98,-99.99,,,0.68,Acu-Link.com,2013-02-20 01:15:00,
2013-02-19 17:31:00,36.3,35.8,29.63,ESE,112,3.2,-999.0,98,-99.99,,,0.68,Acu-Link.com,2013-02-20 01:31:00,
2013-02-19 17:46:00,36.1,35.6,29.63,NE,45,3.7,-999.0,98,-99.99,,,0.68,Acu-Link.com,2013-02-20 01:46:00,
2013-02-19 18:01:00,35.2,34.7,29.63,ESE,112,2.7,-999.0,98,-99.99,,,0.68,Acu-Link.com,2013-02-20 02:01:00,
2013-02-19 18:16:00,34.9,34.4,29.63,East,90,1.7,-999.0,98,-99.99,,,0.68,Acu-Link.com,2013-02-20 02:16:00,
2013-02-19 18:31:00,34.9,34.4,29.63,ESE,112,2.2,-999.0,98,-99.99,,,0.68,Acu-Link.com,2013-02-20 02:31:00,
2013-02-19 18:47:00,34.3,33.8,29.64,West,270,2.7,-999.0,98,-99.99,,,0.68,Acu-Link.com,2013-02-20 02:47:00,
2013-02-19 19:02:00,34.7,34.2,29.64,SE,135,0.0,-999.0,98,-99.99,,,0.68,Acu-Link.com,2013-02-20 03:02:00,
2013-02-19 19:17:00,35.1,34.6,29.63,ESE,112,2.7,-999.0,98,-99.99,,,0.68,Acu-Link.com,2013-02-20 03:17:00,
2013-02-19 19:32:00,35.2,34.7,29.63,NNE,22,2.7,-999.0,98,-99.99,,,0.68,Acu-Link.com,2013-02-20 03:32:00,
2013-02-19 19:47:00,34.7,34.2,29.63,NE,45,2.7,-999.0,98,-99.99,,,0.68,Acu-Link.com,2013-02-20 03:47:00,
2013-02-19 20:03:00,34.5,34.0,29.63,NE,45,1.1,-999.0,98,-99.99,,,0.68,Acu-Link.com,2013-02-20 04:03:00,
2013-02-19 20:18:00,34.9,34.4,29.63,NW,315,0.0,-999.0,98,-99.99,,,0.68,Acu-Link.com,2013-02-20 04:18:00,
2013-02-19 20:33:00,34.5,34.0,29.63,NNE,22,0.0,-999.0,98,-99.99,,,0.68,Acu-Link.com,2013-02-20 04:33:00,
2013-02-19 20:48:00,35.2,34.7,29.64,West,270,2.2,-999.0,98,-99.99,,,0.68,Acu-Link.com,2013-02-20 04:48:00,
2013-02-19 21:03:00,34.3,33.8,29.65,WSW,247,2.7,-999.0,98,-99.99,,,0.68,Acu-Link.com,2013-02-20 05:03:00,
2013-02-19 21:18:00,34.7,34.2,29.65,NNW,337,2.2,-999.0,98,-99.99,,,0.68,Acu-Link.com,2013-02-20 05:18:00,
2013-02-19 21:34:00,34.9,34.4,29.65,NW,315,0.0,-999.0,98,-99.99,,,0.68,Acu-Link.com,2013-02-20 05:34:00,
2013-02-19 21:49:00,34.3,33.8,29.65,NE,45,1.1,-999.0,98,-99.99,,,0.68,Acu-Link.com,2013-02-20 05:49:00,
2013-02-19 22:04:00,34.0,33.5,29.66,East,90,0.0,-999.0,98,-99.99,,,0.68,Acu-Link.com,2013-02-20 06:04:00,
2013-02-19 22:19:00,33.4,32.9,29.65,NNE,22,2.2,-999.0,98,-99.99,,,0.68,Acu-Link.com,2013-02-20 06:19:00,
2013-02-19 22:34:00,32.9,32.4,29.65,West,270,1.7,-999.0,98,-99.99,,,0.68,Acu-Link.com,2013-02-20 06:34:00,
2013-02-19 22:50:00,32.9,32.4,29.66,NE,45,0.0,-999.0,98,-99.99,,,0.68,Acu-Link.com,2013-02-20 06:50:00,
2013-02-19 23:05:00,32.5,32.0,29.67,ESE,112,0.0,-999.0,98,-99.99,,,0.68,Acu-Link.com,2013-02-20 07:05:00,
2013-02-19 23:20:00,32.5,32.0,29.68,ESE,112,0.0,-999.0,98,-99.99,,,0.68,Acu-Link.com,2013-02-20 07:20:00,
2013-02-19 23:35:00,33.1,32.6,29.68,NNW,337,0.0,-999.0,98,-99.99,,,0.68,Acu-Link.com,2013-02-20 07:35:00,
2013-02-19 23:50:00,33.1,32.6,29.68,NE,45,2.2,-999.0,98,-99.99,,,0.68,Acu-Link.com,2013-02-20 07:50:00,